[[{"header":{"parameterUnit":"m.s-1","parameterCategory":1,"la1":30.2991,"la2":30.254,"lo1":-89.0895,"lo2":-89.0444,"dy":0.0017,"dx":0.0017,"nx":28,"ny":28,"refTime":"2024-05-18T09:00:00:Z","depth":0,"parameterNumber":2,"parameterNumberName":"U-component_of_WINDS"},"data":[0,0,0,0,0,0,0,0,0,0,0,0,0,0,0,0,0,0,0,0,0,0,0,0,0,0,0,0,0,0,0,0,0,0,0,0,0,0,0,0,0,0,0,0,0,0,0,0,0,0,0,0,0,0,0,0,0,0,-0.1371,-0.1371,0,-0.1384,-0.1384,-0.1384,-0.1427,-0.1428,-0.1429,-0.143,-0.1441,-0.144,-0.144,0,0,0,0,0,0,0,0,0,0,0,0,0,-0.1382,-0.1381,-0.1371,-0.1371,-0.1371,-0.1384,-0.1384,-0.1384,-0.1427,-0.1428,-0.1429,-0.143,-0.1441,-0.144,-0.144,0,0,0,0,0,0,0,0,0,0,0,0,0,-0.1384,-0.1381,-0.1371,-0.1394,-0.1396,-0.1384,-0.1384,-0.1384,-0.1426,-0.1428,-0.1429,-0.1431,-0.1441,-0.144,-0.144,-0.1405,0,0,-0.1437,-0.1436,0,0,0,0,0,0,0,0,-0.1384,-0.1384,-0.139,-0.1392,-0.1395,-0.1405,-0.1392,-0.1391,-0.1426,-0.1415,-0.143,-0.1431,-0.1428,-0.1428,-0.1427,-0.1406,-0.1406,-0.1437,-0.1436,-0.1436,-0.1436,0,0,0,0,0,0,0,-0.1384,-0.1383,-0.1376,-0.139,-0.1393,-0.1403,-0.1405,-0.1392,-0.1413,-0.1416,-0.1419,-0.142,-0.1429,-0.1428,-0.1428,-0.1407,-0.1437,-0.1436,-0.1435,-0.1435,-0.136,-0.1358,0,0,0,0,0,0,-0.138,-0.1383,-0.1375,-0.1376,-0.1393,-0.1402,-0.1404,-0.14,-0.1413,-0.1417,-0.1419,-0.1422,-0.1429,-0.1429,-0.1428,-0.139,-0.1436,-0.1435,-0.1435,-0.1361,-0.1359,-0.1358,0,0,0,0,0,0,-0.138,-0.1379,-0.1375,-0.138,-0.1381,-0.14,-0.1396,-0.14,-0.1399,-0.1416,-0.1419,-0.1414,-0.143,-0.143,-0.1411,-0.1391,-0.1435,-0.1434,-0.1363,-0.136,-0.1358,-0.1313,0,0,0,0,0,0,-0.1381,-0.1379,-0.1366,-0.138,-0.138,-0.1358,-0.1394,-0.1399,-0.1397,-0.1402,-0.1412,-0.1415,-0.1431,-0.1412,-0.141,-0.1391,-0.1433,-0.1365,-0.1362,-0.1359,-0.1316,-0.1309,-0.1304,0,0,0,0,0,-0.1381,-0.1352,-0.1365,-0.1364,-0.1365,-0.1356,-0.1356,-0.1376,-0.1395,-0.1383,-0.1394,-0.1415,-0.1394,-0.141,-0.1408,-0.1388,-0.1366,-0.1363,-0.1359,-0.1319,-0.1311,-0.1304,0,0,0,0,0,0,-0.1334,-0.1354,-0.1369,-0.1344,-0.1348,-0.1364,-0.1348,-0.1367,-0.1365,-0.1369,-0.1393,-0.1395,-0.1373,-0.1379,-0.1397,-0.1357,-0.1383,-0.138,-0.1354,-0.1346,-0.1339,-0.1338,-0.1432,0,0,0,0,0,-0.1321,-0.1313,-0.1331,-0.1307,-0.1309,-0.1328,-0.1325,-0.134,-0.1345,-0.1347,-0.1357,-0.136,-0.1355,-0.1351,-0.1346,-0.1318,-0.1321,-0.1303,-0.1297,-0.1291,-0.1287,-0.1274,-0.1266,-0.1347,-0.1347,-0.1347,0,0,-0.1294,-0.1304,-0.1297,-0.1298,-0.1303,-0.1294,-0.1329,-0.1318,-0.1311,-0.1345,-0.1329,-0.1336,-0.1342,-0.1319,-0.1309,-0.1323,-0.1266,-0.1287,-0.1283,-0.1282,-0.127,-0.1262,-0.1255,-0.1345,-0.1345,-0.1345,0,0,-0.124,-0.1246,-0.1228,-0.1233,-0.1241,-0.1254,-0.1249,-0.1262,-0.1269,-0.1253,-0.1279,-0.1272,-0.1261,-0.1265,-0.1265,-0.1215,-0.1234,-0.1213,-0.1179,-0.1165,-0.1159,-0.1154,-0.1136,-0.113,-0.1209,-0.1209,-0.1209,0,-0.1204,-0.1192,-0.1216,-0.1203,-0.1203,-0.1235,-0.1217,-0.122,-0.1225,-0.1225,-0.1241,-0.123,-0.1236,-0.1214,-0.1202,-0.1201,-0.1197,-0.1211,-0.1158,-0.1153,-0.1148,-0.1132,-0.1125,-0.1206,-0.1206,-0.1207,-0.1207,0,-0.1149,-0.1141,-0.1125,-0.1131,-0.1129,-0.1114,-0.1135,-0.113,-0.1146,-0.1158,-0.1142,-0.1151,-0.1149,-0.1146,-0.116,-0.1126,-0.1135,-0.1154,-0.1182,-0.1138,-0.1123,-0.1116,-0.1202,-0.1203,-0.1204,-0.1205,0,0,-0.1065,-0.1085,-0.1079,-0.1083,-0.1095,-0.1089,-0.1075,-0.1075,-0.1071,-0.1074,-0.1064,-0.1055,-0.1074,-0.1074,-0.109,-0.1078,-0.1038,-0.1099,-0.1099,-0.1088,-0.1003,-0.0988,-0.0981,-0.1052,-0.105,-0.105,-0.1002,0,-0.1014,-0.0992,-0.1014,-0.0988,-0.0981,-0.1012,-0.1,-0.1006,-0.1017,-0.1013,-0.1025,-0.1019,-0.1043,-0.1044,-0.1033,-0.1045,-0.1022,-0.1049,-0.1042,-0.1041,-0.1039,-0.0973,-0.0957,-0.0912,-0.0997,-0.0996,-0.0995,0,-0.0951,-0.0953,-0.0927,-0.0942,-0.094,-0.0929,-0.0932,-0.0927,-0.0935,-0.0944,-0.0945,-0.0965,-0.0953,-0.098,-0.0964,-0.0983,-0.0981,-0.0987,-0.0985,-0.0985,-0.1015,-0.0971,-0.0898,-0.0891,-0.0986,-0.0987,-0.0987,0,-0.0893,-0.0889,-0.0873,-0.0875,-0.0893,-0.0884,-0.0891,-0.0901,-0.09,-0.0902,-0.0902,-0.0902,-0.0902,-0.0901,-0.0921,-0.0939,-0.0903,-0.0931,-0.091,-0.0909,-0.09,-0.09,-0.0826,-0.0899,-0.0899,-0.0899,-0.0899,0,-0.0834,-0.0817,-0.0848,-0.0838,-0.082,-0.0845,-0.0826,-0.0836,-0.0845,-0.0837,-0.0864,-0.0856,-0.0882,-0.0878,-0.0893,-0.0878,-0.0877,-0.0884,-0.0888,-0.0882,-0.0881,-0.0881,-0.0884,-0.0898,-0.0898,-0.0898,-0.0899,0,-0.0765,-0.0785,-0.077,-0.0788,-0.0793,-0.0779,-0.0794,-0.0786,-0.08,-0.079,-0.079,-0.081,-0.0807,-0.0826,-0.0825,-0.0835,-0.0813,-0.0822,-0.081,-0.0813,-0.0791,-0.0793,-0.0714,-0.0705,-0.0783,-0.0782,-0.0782,0,-0.0726,-0.0714,-0.0732,-0.0729,-0.0735,-0.073,-0.073,-0.0755,-0.0753,-0.0762,-0.0753,-0.0752,-0.0752,-0.0744,-0.0759,-0.0759,-0.0769,-0.0741,-0.0769,-0.0763,-0.0769,-0.0769,-0.0768,-0.0735,-0.0734,-0.0733,-0.0733,0,-0.0655,-0.0666,-0.0665,-0.0668,-0.0667,-0.067,-0.0675,-0.0671,-0.0698,-0.0695,-0.0692,-0.0693,-0.0693,-0.0691,-0.0694,-0.0701,-0.0721,-0.0724,-0.0719,-0.0712,-0.0706,-0.071,-0.0795,-0.0726,-0.0726,-0.0727,-0.0727,-0.0728,-0.06,-0.0592,-0.0603,-0.0601,-0.0608,-0.0612,-0.0606,-0.062,-0.0618,-0.0621,-0.0635,-0.063,-0.0639,-0.0646,-0.0651,-0.0647,-0.066,-0.0652,-0.0651,-0.0648,-0.0645,-0.0707,-0.0647,-0.0648,-0.0648,-0.0648,-0.0648,0,-0.0531,-0.054,-0.0539,-0.0546,-0.0545,-0.0565,-0.0572,-0.057,-0.0565,-0.0572,-0.0573,-0.057,-0.0569,-0.0584,-0.0585,-0.0579,-0.0588,-0.0578,-0.0579,-0.058,-0.0633,-0.0637,-0.0571,-0.0571,-0.0571,-0.0571,-0.0571,-0.0571,-0.0495,-0.0481,-0.0494,-0.0484,-0.0494,-0.049,-0.0492,-0.0496,-0.0503,-0.0499,-0.0498,-0.0509,-0.052,-0.0522,-0.0522,-0.0527,-0.0526,-0.0513,-0.0521,-0.0569,-0.0577,-0.0584,-0.0588,-0.0513,-0.0513,-0.0469,-0.0468,-0.0468]},{"header":{"parameterUnit":"m.s-1","parameterCategory":1,"la1":30.2991,"la2":30.254,"lo1":-89.0895,"lo2":-89.0444,"dy":0.0017,"dx":0.0017,"nx":28,"ny":28,"refTime":"2024-05-18T09:00:00:Z","depth":0,"parameterNumber":3,"parameterNumberName":"V-component_of_WINDS"},"data":[0,0,0,0,0,0,0,0,0,0,0,0,0,0,0,0,0,0,0,0,0,0,0,0,0,0,0,0,0,0,0,0,0,0,0,0,0,0,0,0,0,0,0,0,0,0,0,0,0,0,0,0,0,0,0,0,0,0,0.9272,0.9271,0,0.9188,0.9187,0.9186,0.9112,0.9111,0.911,0.9109,0.9019,0.9017,0.9016,0,0,0,0,0,0,0,0,0,0,0,0,0,0.9363,0.9362,0.9272,0.9271,0.927,0.9188,0.9187,0.9186,0.9112,0.9111,0.911,0.9109,0.9019,0.9017,0.9016,0,0,0,0,0,0,0,0,0,0,0,0,0,0.9306,0.9362,0.9272,0.9223,0.9218,0.9188,0.9187,0.9185,0.9112,0.9111,0.911,0.9108,0.902,0.9018,0.9015,0.9026,0,0,0.9008,0.9007,0,0,0,0,0,0,0,0,0.9309,0.9303,0.9231,0.9226,0.9221,0.9159,0.9186,0.9132,0.9112,0.9152,0.9109,0.9108,0.9066,0.906,0.9047,0.9022,0.9018,0.9008,0.9006,0.9005,0.9004,0,0,0,0,0,0,0,0.9313,0.9306,0.9238,0.923,0.9224,0.9204,0.9194,0.9175,0.9117,0.9149,0.9143,0.9134,0.9063,0.9049,0.9044,0.9016,0.9008,0.9006,0.9004,0.9003,0.8993,0.8995,0,0,0,0,0,0,0.9325,0.931,0.9241,0.9236,0.9263,0.9203,0.9193,0.918,0.9117,0.9107,0.9136,0.9131,0.9054,0.9047,0.9041,0.9048,0.9005,0.9003,0.9002,0.8992,0.8994,0.8995,0,0,0,0,0,0,0.9328,0.932,0.9244,0.9271,0.926,0.9203,0.919,0.9179,0.9165,0.9107,0.9096,0.9133,0.9053,0.9044,0.903,0.9044,0.9002,0.9,0.8991,0.8993,0.8994,0.9063,0,0,0,0,0,0,0.9331,0.9321,0.9326,0.9272,0.9259,0.9237,0.919,0.9178,0.9162,0.9155,0.9102,0.9091,0.9051,0.9034,0.9028,0.9039,0.8998,0.8989,0.8992,0.8994,0.9059,0.9067,0.9073,0,0,0,0,0,0.9334,0.9348,0.9327,0.9319,0.9264,0.9238,0.923,0.9185,0.9163,0.9167,0.9129,0.9093,0.9043,0.9033,0.9025,0.9037,0.8988,0.8991,0.8994,0.9056,0.9065,0.9073,0,0,0,0,0,0,0.9404,0.934,0.9316,0.9313,0.9281,0.9226,0.9228,0.9196,0.917,0.9164,0.9108,0.9096,0.9088,0.9061,0.9051,0.9043,0.9011,0.9012,0.9061,0.9069,0.9076,0.9083,0.8996,0,0,0,0,0,0.9419,0.9405,0.9349,0.9352,0.9337,0.9286,0.9273,0.9241,0.9205,0.9191,0.9153,0.9119,0.9095,0.9081,0.9056,0.9055,0.9041,0.9059,0.9066,0.9072,0.9073,0.9069,0.9076,0.9004,0.9004,0.9004,0,0,0.945,0.9413,0.9407,0.9365,0.9337,0.9322,0.9275,0.9261,0.9249,0.9189,0.9173,0.9144,0.9102,0.9094,0.9089,0.9071,0.909,0.9075,0.9081,0.9079,0.9073,0.908,0.9086,0.9006,0.9005,0.9005,0,0,0.9498,0.947,0.9468,0.9441,0.94,0.9365,0.9365,0.9314,0.9293,0.9277,0.9231,0.9214,0.9175,0.9147,0.9127,0.9164,0.913,0.9158,0.9195,0.9191,0.9197,0.9202,0.9214,0.9219,0.916,0.916,0.916,0,0.9541,0.9518,0.9471,0.946,0.9442,0.9388,0.9385,0.9361,0.9313,0.9301,0.9282,0.9232,0.92,0.9184,0.9193,0.9179,0.9176,0.9163,0.92,0.9205,0.9208,0.9219,0.9224,0.9163,0.9163,0.9163,0.9162,0,0.9572,0.9557,0.9561,0.9517,0.9499,0.9493,0.9443,0.943,0.94,0.9367,0.935,0.931,0.9275,0.9269,0.9239,0.9249,0.9239,0.9211,0.9178,0.922,0.9229,0.9233,0.9169,0.9167,0.9166,0.9165,0,0,0.9662,0.9593,0.9595,0.9574,0.9524,0.9511,0.9501,0.9468,0.9458,0.9427,0.9415,0.9384,0.9358,0.9335,0.9301,0.9298,0.9329,0.927,0.9268,0.9282,0.9336,0.9356,0.9362,0.9306,0.9306,0.9307,0.9339,0,0.9701,0.9682,0.9639,0.9632,0.9617,0.9565,0.9556,0.9523,0.9492,0.9473,0.9437,0.9415,0.9383,0.9369,0.9364,0.9326,0.9339,0.9323,0.9293,0.9293,0.9305,0.9367,0.9389,0.9421,0.9342,0.9343,0.9343,0,0.9745,0.9718,0.971,0.9661,0.9652,0.9645,0.9612,0.9595,0.9556,0.9533,0.9509,0.9471,0.9455,0.9426,0.9403,0.9393,0.9378,0.9357,0.9357,0.9352,0.932,0.9362,0.943,0.9435,0.9348,0.9348,0.9348,0,0.981,0.9771,0.9761,0.9745,0.9688,0.9684,0.9659,0.9619,0.9602,0.9572,0.956,0.9529,0.9511,0.9487,0.9441,0.9423,0.9422,0.9389,0.9401,0.9402,0.9403,0.9403,0.9469,0.9395,0.9395,0.9395,0.9395,0,0.9858,0.9854,0.979,0.9784,0.9778,0.9728,0.9723,0.9694,0.9659,0.9644,0.9597,0.9585,0.9525,0.9505,0.9469,0.9454,0.9447,0.9427,0.9417,0.943,0.9433,0.9419,0.9415,0.9396,0.9396,0.9395,0.9395,0,0.9929,0.9886,0.9871,0.9818,0.9804,0.9803,0.9756,0.9747,0.9713,0.9696,0.9689,0.9635,0.9608,0.956,0.952,0.9495,0.9488,0.9472,0.9502,0.9496,0.9511,0.951,0.9569,0.9573,0.9498,0.9499,0.95,0,0.9962,0.9958,0.9905,0.9893,0.9871,0.9852,0.9834,0.9785,0.9768,0.9724,0.972,0.969,0.9664,0.9624,0.958,0.9548,0.953,0.9553,0.9525,0.9539,0.9529,0.953,0.9529,0.9559,0.956,0.9561,0.9562,0,1.0025,1.0004,0.9981,0.9952,0.9933,0.9906,0.9877,0.987,0.9813,0.9796,0.977,0.975,0.9709,0.9679,0.9642,0.9614,0.9578,0.9571,0.9572,0.9586,0.9603,0.9593,0.9518,0.957,0.9569,0.9569,0.9568,0.9568,1.0077,1.0071,1.0033,1.0009,0.9983,0.9957,0.9946,0.9911,0.9888,0.9852,0.9824,0.9799,0.9759,0.9705,0.9679,0.9658,0.9641,0.9643,0.9643,0.9644,0.9649,0.9608,0.9651,0.9651,0.965,0.965,0.965,0,1.0137,1.011,1.0089,1.005,1.0031,1.0001,0.9967,0.9953,0.9933,0.9899,0.9874,0.9843,0.9814,0.9768,0.9735,0.9727,0.9709,0.9719,0.9719,0.9713,0.9667,0.9669,0.9734,0.9734,0.9734,0.9734,0.9734,0.9734,1.0166,1.0154,1.0128,1.0102,1.0074,1.0051,1.0034,1.0009,0.9982,0.995,0.9927,0.9897,0.9858,0.9822,0.9793,0.978,0.9769,0.9785,0.9767,0.9724,0.9716,0.9709,0.971,0.9783,0.9783,0.9814,0.9815,0.9815]}]]